sat.trackr.live / text

‹ back to catalog

NETSAT-2

NORAD 46507 · 2020-068X

PAYLOAD ACTIVE UNKNOWN

§ Identity

Operator
Country
GER
Launch date
2020-09-28
Launch site
PLMSC
Launch vehicle
Mass (kg)
RCS (m²)

Purposes: tech_demo

External: N2YO · Heavens-Above · Gunter

§ Orbital elements

Epoch: 2026-09-20T00:00:22.292928Z

Period
92.92 min
Inclination
97.8616°
Eccentricity
0.0004236
Mean motion
15.49647348 rev/d
Perigee alt
414.9 km
Apogee alt
420.6 km
Semi-major
6,795.9 km
B*
2.7945e-4
RAAN
279.3849°
Arg perigee
40.3317°
Mean anomaly
319.8246°
Rev number
33,040

§ Raw data

NETSAT-21 46507U 20068X   26263.00025802  .00015378  00000+0  27945-3 0  99972 46507  97.8616 279.3849 0004236  40.3317 319.8246 15.49647348330400

JSON: /api/v1/satellites/46507 · /tle

For live sub-satellite position, see the globe view (requires WebGL).

§ Visibility from observer

Set your observer location to see the next 7 days of passes ≥ 10°. The values pass through the URL so the page stays shareable.

No JS? Fill the form by hand. The geolocation button needs JavaScript.

§ Radio — SatNOGS DB

ModeDescriptionDownlinkUplink
FSK AX.25 G3RUH Telemetry 435.600 MHz

1 transmitter · refreshed weekly from db.satnogs.org